Weather History for KBQP - September, 2014

Change the Weather History Date:

Monday, September 1, 2014

  Actual Average (KMLU) Record (KMLU)
Temperature  
Mean Temperature 82 °F 81 °F  
Max Temperature 93 °F 93 °F 107 °F (2000)
Min Temperature 71 °F 69 °F 56 °F (1967)
Degree Days  
Heating Degree Days 0 0  
Month to date heating degree days 0  
Since 1 July heating degree days 0  
Cooling Degree Days 17 16  
Month to date cooling degree days 16  
Year to date cooling degree days 2023  
Growing Degree Days 32 (Base 50)    
Moisture  
Dew Point 73 °F    
Average Humidity 79    
Maximum Humidity 97    
Minimum Humidity 52    
Precipitation  
Precipitation 0.00 in 0.12 in 2.11 in (2001)
Month to date precipitation 0.12  
Year to date precipitation 35.60  
Snow  
Snow 0.00 in - - ()
Month to date snowfall  
Since 1 July snowfall  
Since 1 September snowfall  
Snow Depth -    
Sea Level Pressure  
Sea Level Pressure 30.01 in    
Wind  
Wind Speed 3 mph (South)    
Max Wind Speed 10 mph    
Max Gust Speed -    
Visibility 9 miles    
Events      
T = Trace of Precipitation, MM = Missing Value Source: NWS Daily Summary

Daily Weather History Graph

Daily Weather History Graph

Search for Another Location

Airport or City:

Trip Planner

Search our weather history database for the weather conditions in past years. The results will help you decide how hot, cold, wet, or windy it might be!

Date:

Astronomy

Sep. 01, 2014 Rise Set
Actual Time 6:42 AM CDT 7:32 PM CDT
Civil Twilight 6:17 AM CDT 7:57 PM CDT
Nautical Twilight 5:47 AM CDT 8:26 PM CDT
Astronomical Twilight 5:16 AM CDT 8:57 PM CDT
Moon 1:06 PM CDT (9/1) 11:55 PM CDT (9/1)
Length of Visible Light 13h 40m
Length of Day
12h 49m
Waxing Crescent, 42% of the Moon is Illuminated
Sep 1
Waxing Crescent
Sep 2
First Quarter
Sep 8
Full
Sep 15
Last Quarter
Sep 24
New

Hourly Weather History & Observations

Time (CDT) Temp. Heat Index Dew Point Humidity Pressure Visibility Wind Dir Wind Speed Gust Speed Precip Events Conditions
12:15 AM 74.5 °F - 70.7 °F 88% 30.00 in 10.0 mi Calm Calm - N/A   Clear
12:35 AM 74.7 °F - 70.7 °F 87% 30.00 in 10.0 mi Calm Calm - N/A   Clear
12:55 AM 73.8 °F - 70.7 °F 90% 29.99 in 10.0 mi Calm Calm - N/A   Clear
1:15 AM 73.8 °F - 70.7 °F 90% 30.00 in 10.0 mi Calm Calm - N/A   Clear
1:35 AM 73.6 °F - 70.7 °F 91% 30.01 in 10.0 mi Calm Calm - N/A   Clear
1:55 AM 73.8 °F - 70.7 °F 90% 30.01 in 10.0 mi Calm Calm - N/A   Clear
2:15 AM 73.6 °F - 70.7 °F 91% 30.01 in 10.0 mi Calm Calm - N/A   Scattered Clouds
2:35 AM 73.8 °F - 70.7 °F 90% 30.01 in 10.0 mi South 3.5 mph - N/A   Clear
2:55 AM 73.9 °F - 70.9 °F 90% 30.01 in 10.0 mi South 4.6 mph - N/A   Clear
3:15 AM 73.6 °F - 70.9 °F 91% 30.01 in 10.0 mi South 3.5 mph - N/A   Clear
3:35 AM 73.6 °F - 71.1 °F 92% 30.01 in 10.0 mi SSE 3.5 mph - N/A   Clear
3:55 AM 73.6 °F - 71.2 °F 92% 30.01 in 10.0 mi Calm Calm - N/A   Clear
4:15 AM 73.4 °F - 71.4 °F 93% 30.01 in 10.0 mi Calm Calm - N/A   Clear
4:35 AM 72.0 °F - 70.7 °F 96% 30.02 in 7.0 mi Calm Calm - N/A   Clear
4:55 AM 71.8 °F - 70.7 °F 96% 30.02 in 5.0 mi Calm Calm - N/A   Clear
5:15 AM 72.5 °F - 71.6 °F 97% 30.02 in 7.0 mi Calm Calm - N/A   Clear
5:35 AM 72.7 °F - 71.6 °F 96% 30.02 in 7.0 mi Calm Calm - N/A   Clear
5:55 AM 72.0 °F - 70.9 °F 96% 30.02 in 5.0 mi Calm Calm - N/A   Clear
6:15 AM 72.0 °F - 70.9 °F 96% 30.02 in 5.0 mi Calm Calm - N/A   Clear
6:35 AM 71.1 °F - 70.0 °F 96% 30.03 in 5.0 mi Calm Calm - N/A   Clear
7:15 AM 73.8 °F - 72.9 °F 97% 30.02 in 2.0 mi Calm Calm - N/A   Overcast
7:35 AM 74.7 °F - 73.8 °F 97% 30.03 in 3.0 mi SSE 3.5 mph - N/A   Overcast
7:55 AM 75.4 °F - 74.5 °F 97% 30.03 in 4.0 mi Calm Calm - N/A   Overcast
8:15 AM 75.7 °F - 74.7 °F 96% 30.04 in 2.0 mi SSE 4.6 mph - N/A   Overcast
8:35 AM 76.3 °F - 75.2 °F 96% 30.04 in 2.0 mi South 3.5 mph - N/A   Overcast
8:55 AM 77.5 °F - 75.7 °F 94% 30.04 in 4.0 mi South 4.6 mph - N/A   Overcast
9:15 AM 78.6 °F - 75.7 °F 91% 30.05 in 5.0 mi South 5.8 mph - N/A   Overcast
9:35 AM 80.1 °F 85.5 °F 76.1 °F 88% 30.05 in 7.0 mi South 5.8 mph - N/A   Overcast
9:55 AM 83.5 °F 92.9 °F 77.0 °F 81% 30.04 in 7.0 mi South 6.9 mph - N/A   Overcast
10:15 AM 83.3 °F 92.1 °F 76.5 °F 80% 30.04 in 7.0 mi South 5.8 mph - N/A   Mostly Cloudy
10:35 AM 84.2 °F 93.4 °F 76.1 °F 77% 30.05 in 10.0 mi SSW 6.9 mph - N/A   Mostly Cloudy
11:15 AM 86.9 °F 96.8 °F 75.7 °F 69% 30.05 in 10.0 mi SSW 10.4 mph - N/A   Scattered Clouds
11:35 AM 87.4 °F 97.2 °F 75.2 °F 67% 30.04 in 10.0 mi South 9.2 mph - N/A   Scattered Clouds
11:55 AM 89.2 °F 99.5 °F 75.0 °F 63% 30.05 in 10.0 mi SW 10.4 mph - N/A   Scattered Clouds
12:35 PM 90.7 °F 101.3 °F 75.0 °F 60% 30.05 in 10.0 mi SSW 8.1 mph - N/A   Scattered Clouds
12:55 PM 88.5 °F 97.8 °F 74.5 °F 63% 30.04 in 10.0 mi SW 8.1 mph - N/A   Scattered Clouds
1:15 PM 90.1 °F 100.0 °F 74.7 °F 60% 30.03 in 10.0 mi South 5.8 mph - N/A   Scattered Clouds
1:35 PM 90.5 °F 100.3 °F 74.3 °F 59% 30.02 in 10.0 mi SSW 9.2 mph - N/A   Scattered Clouds
2:15 PM 90.9 °F 98.9 °F 72.9 °F 55% 30.01 in 10.0 mi SSW 9.2 mph - N/A   Scattered Clouds
2:35 PM 91.6 °F 101.1 °F 73.8 °F 56% 30.00 in 10.0 mi South 4.6 mph - N/A   Scattered Clouds
3:15 PM 92.3 °F 101.5 °F 73.2 °F 54% 29.99 in 10.0 mi South 6.9 mph - N/A   Clear
3:35 PM 93.2 °F 102.4 °F 73.2 °F 52% 29.98 in 10.0 mi South 5.8 mph - N/A   Scattered Clouds
3:55 PM 92.3 °F 101.5 °F 73.4 °F 54% 29.97 in 10.0 mi SE 5.8 mph - N/A   Mostly Cloudy
4:15 PM 92.5 °F 101.9 °F 73.8 °F 54% 29.96 in 10.0 mi SE 4.6 mph - N/A   Scattered Clouds
4:35 PM 92.5 °F 100.7 °F 72.3 °F 52% 29.96 in 10.0 mi SSW 8.1 mph - N/A   Scattered Clouds
4:55 PM 92.8 °F 101.5 °F 73.0 °F 52% 29.97 in 10.0 mi Calm Calm - N/A   Scattered Clouds
5:15 PM 91.6 °F 100.5 °F 73.2 °F 55% 29.96 in 10.0 mi Calm Calm - N/A   Clear
5:35 PM 89.8 °F 98.6 °F 73.8 °F 59% 29.95 in 10.0 mi Calm Calm - N/A   Clear
6:15 PM 90.1 °F 98.9 °F 73.8 °F 58% 29.95 in 10.0 mi East 8.1 mph - N/A   Scattered Clouds
6:35 PM 85.8 °F 92.6 °F 73.0 °F 65% 29.97 in 10.0 mi SE 8.1 mph - N/A   Clear
6:55 PM 83.5 °F 89.4 °F 72.7 °F 70% 29.97 in 10.0 mi SE 5.8 mph - N/A   Clear
7:15 PM 82.4 °F 87.7 °F 72.7 °F 72% 29.98 in 10.0 mi SE 4.6 mph - N/A   Clear
7:35 PM 81.7 °F 86.5 °F 72.1 °F 73% 29.97 in 10.0 mi SE 3.5 mph - N/A   Clear
7:55 PM 80.6 °F 84.7 °F 72.1 °F 75% 29.98 in 10.0 mi SE 3.5 mph - N/A   Clear
8:15 PM 80.6 °F 84.7 °F 72.0 °F 75% 29.98 in 10.0 mi SE 4.6 mph - N/A   Clear
8:35 PM 79.7 °F - 72.5 °F 79% 29.99 in 10.0 mi ESE 3.5 mph - N/A   Clear
9:15 PM 79.0 °F - 73.2 °F 82% 29.99 in 10.0 mi SSE 4.6 mph - N/A   Clear
9:35 PM 79.0 °F - 73.4 °F 83% 29.99 in 10.0 mi SSE 4.6 mph - N/A   Clear
9:55 PM 78.6 °F - 73.6 °F 84% 29.99 in 10.0 mi SSE 4.6 mph - N/A   Clear
10:15 PM 78.1 °F - 73.6 °F 86% 29.99 in 10.0 mi SSE 5.8 mph - N/A   Clear
10:35 PM 78.1 °F - 73.4 °F 85% 29.98 in 10.0 mi South 8.1 mph - N/A   Clear
10:55 PM 77.9 °F - 73.4 °F 86% 29.98 in 10.0 mi South 6.9 mph - N/A   Clear
11:35 PM 77.0 °F - 73.0 °F 88% 29.98 in 10.0 mi South 4.6 mph - N/A   Clear
11:55 PM 77.0 °F - 73.0 °F 88% 29.98 in 10.0 mi South 6.9 mph - N/A   Clear